Content
SEND FEEDBACK

Daily
Averages
Monthly
Summary
Canada

MONTREAL, QUEBEC


Home > North America > Canada > Quebec
Elevation: 118 feet     Latitude: 45 28N     Longitude: 073 45W

WEATHER
 
SELECT A DAY
Number of Records: 200,695;   Date Range: 1/1/95 - 9/29/14
 
SHARE

PRINT THIS DATA

[ ← Previous Day ]
WEATHER ALMANAC - JUNE 12, 2013
[ Next Day → ]
[ °C ]   °F
Weather ElementAverageHighLow
Temperature61.6 °F70 °F (2:00 pm)55.4 °F (3:00 am)
Dewpoint54.2 °F57.2 °F (4:29 pm)50 °F (1:00 pm)
Humidity77.4 %94 % (12:43 am)45 % (2:00 pm)
Barometer29.80 in29.86 in (9:00 pm)29.71 in (1:00 am)
Wind Speed10.1 mph21.9 mph (1:50 am)
Wind Gust29.9 mph (1:00 am)
Weather ElementAverage
Visibility13.4 mi
Wind DirectionWSW (233.6 °)

Weather ElementTotal
Precipitation---
Heating Degree Days2.3 (Base 65)
Growing Degree Days12.7 (Base 50)
Averaged from 36 records on June 12, 2013
WEATHER CONDITIONS BREAKOUT
WIND DIRECTION BREAKOUT
WEATHER BY HOUR - JUNE 12, 2013
[ °C ]   °F
Local TimeTemperatureDewpointHumidityBarometerVisibilityWind DirectionWind SpeedGust SpeedPrecipitationEventsConditions
12:43 AM57.2 °F55.4 °F94 %29.72 in8.0 miNNE (20°)17.3 mph26.5 mphRainLight Rain
1:00 AM57.2 °F53.6 °F88 %29.71 in8.0 miNNE (20°)18.4 mph29.9 mphRainLight Rain
1:50 AM57.2 °F53.6 °F88 %29.73 in8.0 miNorth (360°)21.9 mph28.8 mphRainLight Rain
2:00 AM56.0 °F54.0 °F90 %29.73 in7.0 miNNE (20°)15.0 mphRainLight Rain
2:00 AM57.2 °F53.6 °F88 %29.73 in8.0 miNNE (30°)13.8 mph25.3 mphRainLight Rain
3:00 AM55.4 °F53.6 °F94 %29.75 in8.0 miNNE (20°)13.8 mphRainLight Rain
4:00 AM55.4 °F53.6 °F94 %29.76 in8.0 miNorth (360°)13.8 mph20.7 mphRainLight Rain
5:00 AM55.4 °F53.6 °F94 %29.77 in12.0 miNorth (350°)11.5 mph19.6 mphRainLight Rain
5:45 AM55.4 °F53.6 °F94 %29.79 in15.0 miNNW (340°)10.4 mphOvercast
6:00 AM55.4 °F53.6 °F94 %29.79 in15.0 miNNW (340°)10.4 mphOvercast
7:00 AM57.2 °F53.6 °F88 %29.81 in15.0 miNNW (330°)9.2 mphMostly Cloudy
8:00 AM59.0 °F55.0 °F81 %29.82 in15.0 miNNW (330°)11.5 mphPartly Cloudy
8:00 AM59.0 °F55.4 °F88 %29.82 in15.0 miNNW (330°)9.2 mphMostly Cloudy
9:00 AM60.8 °F53.6 °F77 %29.83 in15.0 miNNW (340°)10.4 mphRainLight Rain Showers
9:23 AM62.6 °F53.6 °F72 %29.83 in15.0 miNNW (340°)12.7 mphMostly Cloudy
10:00 AM64.4 °F53.6 °F68 %29.83 in15.0 miNorth (350°)11.5 mphMostly Cloudy
11:00 AM68.0 °F51.8 °F56 %29.84 in15.0 miNNE (30°)10.4 mphScattered Clouds
12:00 PM68.0 °F51.8 °F56 %29.83 in15.0 miNorth (350°)3.5 mphMostly Cloudy
1:00 PM69.8 °F50.0 °F49 %29.83 in15.0 miNW (320°)3.5 mphScattered Clouds
2:00 PM70.0 °F53.0 °F45 %29.81 in15.0 miSSW (200°)11.5 mphPartly Cloudy
2:00 PM69.8 °F53.6 °F56 %29.81 in15.0 miSouth (190°)11.5 mphScattered Clouds
2:36 PM69.8 °F51.8 °F53 %29.80 in15.0 miSSW (200°)15.0 mphMostly Cloudy
2:43 PM69.8 °F53.6 °F56 %29.80 in15.0 miSouth (190°)12.7 mphRainLight Rain Showers
3:00 PM69.8 °F53.6 °F56 %29.79 in15.0 miSouth (190°)13.8 mphRain-ThunderstormLight Thunderstorms and Rain
4:00 PM62.6 °F53.6 °F72 %29.80 in12.0 miWest (280°)12.7 mphRain-ThunderstormLight Thunderstorms and Rain
4:29 PM60.8 °F57.2 °F88 %29.79 in15.0 miSW (230°)8.1 mphRainLight Rain Showers
5:00 PM62.6 °F55.4 °F77 %29.81 in15.0 miWNW (300°)8.1 mphMostly Cloudy
6:00 PM62.6 °F55.4 °F77 %29.80 in15.0 miSW (230°)6.9 mphOvercast
7:00 PM62.6 °F55.4 °F77 %29.80 in15.0 miWSW (240°)4.6 mphOvercast
7:35 PM62.6 °F55.4 °F77 %29.81 in15.0 miCalmRainLight Rain Showers
8:00 PM62.0 °F56.0 °F77 %29.83 in15.0 miNNE (20°)2.3 mphRainLight Rain Showers
8:00 PM62.6 °F57.2 °F82 %29.83 in15.0 miNNW (340°)8.1 mphRainLight Rain Showers
8:49 PM60.8 °F57.2 °F88 %29.85 in15.0 miNorth (360°)3.5 mphOvercast
9:00 PM60.8 °F57.2 °F88 %29.86 in15.0 miNorth (360°)8.1 mphOvercast
10:00 PM59.0 °F51.8 °F77 %29.86 in15.0 miWSW (250°)3.5 mphMostly Cloudy
11:00 PM59.0 °F55.4 °F88 %29.82 in15.0 miWSW (250°)3.5 mphScattered Clouds
Hourly data recorded from CYUL, located miles away from Montreal, Quebec







STORIES FROM OUR PARTNERS